CST,Max TemperatureF,Mean TemperatureF,Min TemperatureF,Max Dew PointF,MeanDew PointF,Min DewpointF,Max Humidity, Mean Humidity, Min Humidity, Max Sea Level PressureIn, Mean Sea Level PressureIn, Min Sea Level PressureIn, Max VisibilityMiles, Mean VisibilityMiles, Min VisibilityMiles, Max Wind SpeedMPH, Mean Wind SpeedMPH, Max Gust SpeedMPH,PrecipitationIn, CloudCover, Events, WindDirDegrees
2012-11-1,55,44,32,30,22,18,70,52,30,29.96,29.88,29.81,10,10,10,14,8,21,0.00,5,,317
2012-11-2,46,36,26,30,27,25,93,74,43,30.17,30.05,29.94,10,10,10,9,6,,0.00,0,,358
2012-11-3,44,37,30,30,29,27,93,77,49,30.23,30.18,30.14,10,10,10,13,2,,0.00,6,,49
2012-11-4,48,39,30,30,28,25,93,75,43,30.24,30.21,30.17,10,10,10,8,1,,0.00,3,,40
2012-11-5,44,34,24,34,28,21,93,78,49,30.20,30.16,30.09,10,9,2,12,1,,0.00,4,,106
2012-11-6,39,34,28,37,32,27,93,89,70,30.10,29.94,29.86,10,5,2,13,3,,0.01,6,Rain,164
2012-11-7,44,42,39,39,36,36,93,83,71,30.15,30.07,29.88,5,3,1,9,1,,0.00,8,,2
2012-11-8,48,42,35,37,34,32,93,78,57,30.18,30.11,30.05,10,7,3,14,3,17,0.00,4,,172
2012-11-9,53,43,33,41,36,32,93,81,58,30.09,30.02,29.96,7,5,3,13,5,,0.00,4,Rain,87
2012-11-10,66,57,48,54,48,43,82,61,52,29.95,29.83,29.79,10,9,5,28,13,34,0.00,2,,165
2012-11-11,66,50,33,54,43,30,93,73,55,29.93,29.84,29.65,10,9,2,26,16,32,0.12,6,Rain,220
2012-11-12,33,28,23,30,21,16,87,70,60,30.32,30.12,29.93,10,10,10,21,15,29,0.00,5,,273
2012-11-13,41,31,21,25,20,16,86,69,39,30.47,30.41,30.33,10,10,10,14,4,,0.00,0,,225
2012-11-14,48,38,28,28,26,21,80,69,40,30.46,30.40,30.34,10,10,10,17,6,22,0.00,2,,164
2012-11-15,51,40,30,30,27,25,87,73,38,30.35,30.32,30.28,10,10,10,12,4,,0.00,0,,179
2012-11-16,51,38,26,37,31,23,93,86,54,30.46,30.41,30.35,10,5,0,9,1,,0.00,1,Fog,92
2012-11-17,55,42,28,36,30,27,100,79,35,30.51,30.46,30.42,10,4,0,14,4,,0.00,2,Fog,142
2012-11-18,55,42,30,34,31,27,87,70,36,30.41,30.35,30.28,10,8,5,14,4,17,0.00,0,,150
2012-11-19,55,46,37,41,36,32,81,65,51,30.27,30.17,30.08,10,10,6,10,4,,0.00,4,,171
2012-11-20,57,47,37,45,40,36,93,84,59,30.17,30.12,30.07,10,4,0,8,1,,0.00,5,Fog,309
2012-11-21,57,45,33,46,37,32,100,82,54,30.20,30.12,30.03,10,4,0,14,4,20,0.00,4,Fog,196
2012-11-22,64,52,39,46,39,30,87,69,40,30.03,29.86,29.73,10,8,4,30,14,37,0.00,1,,220
2012-11-23,39,34,28,28,20,16,65,61,55,30.21,30.04,29.86,10,10,7,30,20,39,0.00,8,Snow,296
2012-11-24,33,30,26,21,18,16,80,61,48,30.24,30.11,29.91,10,10,10,14,10,17,0.00,7,,263
2012-11-25,42,34,26,23,22,19,80,66,42,30.09,29.92,29.83,10,10,10,12,7,17,0.00,2,,265
2012-11-26,33,25,17,21,15,7,80,66,47,30.37,30.24,30.09,10,10,10,9,4,,0.00,2,,332
2012-11-27,33,22,12,16,11,7,92,62,38,30.38,30.30,30.21,10,10,10,15,3,,0.00,3,,228
2012-11-28,44,32,21,21,18,14,74,58,34,30.35,30.26,30.21,10,10,10,10,4,,0.00,1,,220
2012-11-29,51,38,26,32,28,21,80,64,40,30.21,30.12,30.05,10,10,10,13,7,,0.00,3,,167
2012-11-30,50,44,39,37,34,32,81,73,58,30.16,30.10,30.04,10,7,2,14,7,21,0.00,7,,73